Time,TemperatureF,DewpointF,PressureIn,WindDirection,WindDirectionDegrees,WindSpeedMPH,WindSpeedGustMPH,Humidity,HourlyPrecipIn,Conditions,Clouds,dailyrainin,SoftwareType,DateUTC
2013-05-21 00:01:00,71.1,49.3,29.32,ENE,68,0.0,0.0,46,0.00,,---,0.00,VWS V14.01,2013-05-21 05:01:00,
2013-05-21 00:06:00,71.1,49.3,29.32,ENE,68,0.0,0.0,46,0.00,,---,0.00,VWS V14.01,2013-05-21 05:06:00,
2013-05-21 00:11:00,71.1,49.3,29.32,ENE,68,0.0,0.0,46,0.00,,---,0.00,VWS V14.01,2013-05-21 05:11:00,
2013-05-21 00:16:00,71.1,49.3,29.32,ENE,68,0.0,0.0,46,0.00,,---,0.00,VWS V14.01,2013-05-21 05:16:00,
2013-05-21 00:21:00,70.9,49.1,29.32,ENE,68,0.0,0.0,46,0.00,,---,0.00,VWS V14.01,2013-05-21 05:21:00,
2013-05-21 00:26:00,70.9,49.1,29.32,ENE,68,0.0,0.0,46,0.00,,---,0.00,VWS V14.01,2013-05-21 05:26:00,
2013-05-21 00:31:00,70.7,48.9,29.32,ENE,68,0.0,0.0,46,0.00,,---,0.00,VWS V14.01,2013-05-21 05:31:00,
2013-05-21 00:36:00,70.7,49.5,29.32,ENE,68,0.0,0.0,47,0.00,,---,0.00,VWS V14.01,2013-05-21 05:36:00,
2013-05-21 00:40:00,70.5,49.3,29.32,ENE,68,0.0,0.0,47,0.00,,---,0.00,VWS V14.01,2013-05-21 05:40:00,
2013-05-21 00:45:00,70.3,49.7,29.32,ENE,68,0.0,0.0,48,0.00,,---,0.00,VWS V14.01,2013-05-21 05:45:00,
2013-05-21 00:50:00,70.3,49.7,29.32,ENE,68,0.0,0.0,48,0.00,,---,0.00,VWS V14.01,2013-05-21 05:50:00,
2013-05-21 00:55:00,70.0,49.4,29.32,ENE,68,0.0,0.0,48,0.00,,---,0.00,VWS V14.01,2013-05-21 05:55:00,
2013-05-21 01:00:00,69.8,49.8,29.32,ENE,68,0.0,0.0,49,0.00,,---,0.00,VWS V14.01,2013-05-21 06:00:00,
2013-05-21 01:05:00,69.6,50.2,29.32,ENE,68,0.0,0.0,50,0.00,,---,0.00,VWS V14.01,2013-05-21 06:05:00,
2013-05-21 01:10:00,69.4,50.0,29.32,ENE,68,0.0,0.0,50,0.00,,---,0.00,VWS V14.01,2013-05-21 06:10:00,
2013-05-21 01:15:00,69.3,49.8,29.32,ENE,68,0.0,0.0,50,0.00,,---,0.00,VWS V14.01,2013-05-21 06:15:00,
2013-05-21 01:20:00,69.1,50.2,29.32,ENE,68,0.0,0.0,51,0.00,,---,0.00,VWS V14.01,2013-05-21 06:20:00,
2013-05-21 01:25:00,69.1,50.7,29.32,ENE,68,0.0,0.0,52,0.00,,---,0.00,VWS V14.01,2013-05-21 06:25:00,
2013-05-21 01:30:00,69.3,51.4,29.32,ENE,68,0.0,0.0,53,0.00,,---,0.00,VWS V14.01,2013-05-21 06:30:00,
2013-05-21 01:35:00,69.4,51.6,29.29,ENE,68,0.0,0.0,53,0.00,,---,0.00,VWS V14.01,2013-05-21 06:35:00,
2013-05-21 01:40:00,69.4,51.6,29.29,ENE,68,0.0,0.0,53,0.00,,---,0.00,VWS V14.01,2013-05-21 06:40:00,
2013-05-21 01:45:00,69.6,51.8,29.29,ENE,68,0.0,0.0,53,0.00,,---,0.00,VWS V14.01,2013-05-21 06:45:00,
2013-05-21 01:50:00,69.6,51.8,29.29,ENE,68,0.0,0.0,53,0.00,,---,0.00,VWS V14.01,2013-05-21 06:50:00,
2013-05-21 01:55:00,69.4,51.1,29.29,ENE,68,0.0,0.0,52,0.00,,---,0.00,VWS V14.01,2013-05-21 06:55:00,
2013-05-21 02:00:00,69.4,51.1,29.29,ENE,68,0.0,0.0,52,0.00,,---,0.00,VWS V14.01,2013-05-21 07:00:00,
2013-05-21 02:05:00,69.4,51.1,29.29,ENE,68,0.0,0.0,52,0.00,,---,0.00,VWS V14.01,2013-05-21 07:05:00,
2013-05-21 02:10:00,69.6,51.2,29.29,ENE,68,0.0,0.0,52,0.00,,---,0.00,VWS V14.01,2013-05-21 07:10:00,
2013-05-21 02:15:00,69.6,51.2,29.29,ENE,68,0.0,0.0,52,0.00,,---,0.00,VWS V14.01,2013-05-21 07:15:00,
2013-05-21 02:20:00,69.6,51.2,29.29,ENE,68,0.0,0.0,52,0.00,,---,0.00,VWS V14.01,2013-05-21 07:20:00,
2013-05-21 02:25:00,69.8,51.4,29.29,ENE,68,0.0,0.0,52,0.00,,---,0.00,VWS V14.01,2013-05-21 07:25:00,
2013-05-21 02:30:00,69.8,50.9,29.29,ENE,68,0.0,0.0,51,0.00,,---,0.00,VWS V14.01,2013-05-21 07:30:00,
2013-05-21 02:35:00,69.8,50.9,29.29,ENE,68,0.0,0.0,51,0.00,,---,0.00,VWS V14.01,2013-05-21 07:35:00,
2013-05-21 02:40:00,69.8,50.9,29.29,ENE,68,0.0,0.0,51,0.00,,---,0.00,VWS V14.01,2013-05-21 07:40:00,
2013-05-21 02:45:00,69.8,50.9,29.29,ENE,68,0.0,0.0,51,0.00,,---,0.00,VWS V14.01,2013-05-21 07:45:00,
2013-05-21 02:50:00,69.8,50.9,29.29,ENE,68,0.0,0.0,51,0.00,,---,0.00,VWS V14.01,2013-05-21 07:50:00,
2013-05-21 02:55:00,69.8,50.9,29.29,ENE,68,0.0,0.0,51,0.00,,---,0.00,VWS V14.01,2013-05-21 07:55:00,
2013-05-21 03:00:00,69.6,50.7,29.29,ENE,68,0.0,0.0,51,0.00,,---,0.00,VWS V14.01,2013-05-21 08:00:00,
2013-05-21 03:05:00,69.6,51.2,29.29,ENE,68,0.0,0.0,52,0.00,,---,0.00,VWS V14.01,2013-05-21 08:05:00,
2013-05-21 03:10:00,69.4,51.1,29.29,ENE,68,0.0,0.0,52,0.00,,---,0.00,VWS V14.01,2013-05-21 08:10:00,
2013-05-21 03:15:00,69.3,50.9,29.29,ENE,68,0.0,0.0,52,0.00,,---,0.00,VWS V14.01,2013-05-21 08:15:00,
2013-05-21 03:20:00,69.1,50.7,29.29,ENE,68,0.0,0.0,52,0.00,,---,0.00,VWS V14.01,2013-05-21 08:20:00,
2013-05-21 03:25:00,68.9,51.1,29.29,ENE,68,0.0,0.0,53,0.00,,---,0.00,VWS V14.01,2013-05-21 08:25:00,
2013-05-21 03:30:00,68.9,51.1,29.29,ENE,68,0.0,0.0,53,0.00,,---,0.00,VWS V14.01,2013-05-21 08:30:00,
2013-05-21 03:35:00,68.7,51.4,29.29,ENE,68,0.0,0.0,54,0.00,,---,0.00,VWS V14.01,2013-05-21 08:35:00,
2013-05-21 03:40:00,68.7,51.4,29.29,ENE,68,0.0,0.0,54,0.00,,---,0.00,VWS V14.01,2013-05-21 08:40:00,
2013-05-21 03:45:00,68.5,51.8,29.29,ENE,68,0.0,0.0,55,0.00,,---,0.00,VWS V14.01,2013-05-21 08:45:00,
2013-05-21 03:50:00,68.5,51.8,29.29,ENE,68,0.0,0.0,55,0.00,,---,0.00,VWS V14.01,2013-05-21 08:50:00,
2013-05-21 03:55:00,68.4,51.6,29.32,ENE,68,0.0,0.0,55,0.00,,---,0.00,VWS V14.01,2013-05-21 08:55:00,
2013-05-21 04:00:00,68.4,52.1,29.32,ENE,68,0.0,0.0,56,0.00,,---,0.00,VWS V14.01,2013-05-21 09:00:00,
2013-05-21 04:05:00,68.2,51.9,29.32,ENE,68,0.0,0.0,56,0.00,,---,0.00,VWS V14.01,2013-05-21 09:05:00,
2013-05-21 04:10:00,68.2,51.9,29.32,ENE,68,0.0,0.0,56,0.00,,---,0.00,VWS V14.01,2013-05-21 09:10:00,
2013-05-21 04:15:00,68.0,52.2,29.32,ENE,68,0.0,0.0,57,0.00,,---,0.00,VWS V14.01,2013-05-21 09:15:00,
2013-05-21 04:20:00,68.0,52.2,29.32,ENE,68,0.0,0.0,57,0.00,,---,0.00,VWS V14.01,2013-05-21 09:20:00,
2013-05-21 04:25:00,67.8,52.5,29.32,ENE,68,0.0,0.0,58,0.00,,---,0.00,VWS V14.01,2013-05-21 09:25:00,
2013-05-21 04:30:00,67.6,52.8,29.32,ENE,68,0.0,0.0,59,0.00,,---,0.00,VWS V14.01,2013-05-21 09:30:00,
2013-05-21 04:35:00,67.6,52.8,29.32,ENE,68,0.0,0.0,59,0.00,,---,0.00,VWS V14.01,2013-05-21 09:35:00,
2013-05-21 04:40:00,67.6,52.8,29.32,ENE,68,0.0,0.0,59,0.00,,---,0.00,VWS V14.01,2013-05-21 09:40:00,
2013-05-21 04:45:00,67.5,53.1,29.32,ENE,68,0.0,0.0,60,0.00,,---,0.00,VWS V14.01,2013-05-21 09:45:00,
2013-05-21 04:50:00,67.5,53.1,29.32,ENE,68,0.0,0.0,60,0.00,,---,0.00,VWS V14.01,2013-05-21 09:50:00,
2013-05-21 04:55:00,67.6,54.2,29.32,ENE,68,0.0,0.0,62,0.00,,---,0.00,VWS V14.01,2013-05-21 09:55:00,
2013-05-21 05:00:00,67.6,54.2,29.32,ENE,68,0.0,0.0,62,0.00,,---,0.00,VWS V14.01,2013-05-21 10:00:00,
2013-05-21 05:05:00,67.6,53.7,29.32,ENE,68,0.0,0.0,61,0.00,,---,0.00,VWS V14.01,2013-05-21 10:05:00,
2013-05-21 05:10:00,67.5,53.6,29.29,ENE,68,0.0,0.0,61,0.00,,---,0.00,VWS V14.01,2013-05-21 10:10:00,
2013-05-21 05:15:00,67.5,53.6,29.29,ENE,68,0.0,0.0,61,0.00,,---,0.00,VWS V14.01,2013-05-21 10:15:00,
2013-05-21 05:20:00,67.3,53.8,29.29,ENE,68,0.0,0.0,62,0.00,,---,0.00,VWS V14.01,2013-05-21 10:20:00,
2013-05-21 05:25:00,67.5,54.9,29.32,ENE,68,0.0,0.0,64,0.00,,---,0.00,VWS V14.01,2013-05-21 10:25:00,
2013-05-21 05:30:00,67.5,54.9,29.32,ENE,68,0.0,0.0,64,0.00,,---,0.00,VWS V14.01,2013-05-21 10:30:00,
2013-05-21 05:35:00,67.5,54.4,29.32,ENE,68,0.0,0.0,63,0.00,,---,0.00,VWS V14.01,2013-05-21 10:35:00,
2013-05-21 05:40:00,67.5,54.4,29.32,ENE,68,0.0,0.0,63,0.00,,---,0.00,VWS V14.01,2013-05-21 10:40:00,
2013-05-21 05:45:00,67.5,54.4,29.32,ENE,68,0.0,0.0,63,0.00,,---,0.00,VWS V14.01,2013-05-21 10:45:00,
2013-05-21 05:50:00,67.6,55.0,29.32,ENE,68,0.0,0.0,64,0.00,,---,0.00,VWS V14.01,2013-05-21 10:50:00,
2013-05-21 05:55:00,67.6,55.0,29.32,ENE,68,0.0,0.0,64,0.00,,---,0.00,VWS V14.01,2013-05-21 10:55:00,
2013-05-21 06:00:00,67.8,55.6,29.32,ENE,68,0.0,0.0,65,0.00,,---,0.00,VWS V14.01,2013-05-21 11:00:00,
2013-05-21 06:05:00,68.0,55.4,29.32,ENE,68,0.0,0.0,64,0.00,,---,0.00,VWS V14.01,2013-05-21 11:05:00,
2013-05-21 06:10:00,68.2,55.5,29.32,ENE,68,0.0,0.0,64,0.00,,---,0.00,VWS V14.01,2013-05-21 11:10:00,
2013-05-21 06:15:00,68.2,55.5,29.32,ENE,68,0.0,0.0,64,0.00,,---,0.00,VWS V14.01,2013-05-21 11:15:00,
2013-05-21 06:20:00,68.2,55.5,29.32,ENE,68,0.0,0.0,64,0.00,,---,0.00,VWS V14.01,2013-05-21 11:20:00,
2013-05-21 06:25:00,68.4,55.7,29.32,ENE,68,0.0,0.0,64,0.00,,---,0.00,VWS V14.01,2013-05-21 11:25:00,
2013-05-21 06:30:00,68.5,55.9,29.32,ENE,68,0.0,0.0,64,0.00,,---,0.00,VWS V14.01,2013-05-21 11:30:00,
2013-05-21 06:35:00,68.7,56.1,29.32,ENE,68,0.0,0.0,64,0.00,,---,0.00,VWS V14.01,2013-05-21 11:35:00,
2013-05-21 06:40:00,68.7,56.1,29.32,ENE,68,0.0,0.0,64,0.00,,---,0.00,VWS V14.01,2013-05-21 11:40:00,
2013-05-21 06:45:00,68.9,56.2,29.32,ENE,68,0.0,0.0,64,0.00,,---,0.00,VWS V14.01,2013-05-21 11:45:00,
2013-05-21 06:50:00,69.1,56.4,29.32,ENE,68,0.0,0.0,64,0.00,,---,0.00,VWS V14.01,2013-05-21 11:50:00,
2013-05-21 06:55:00,69.3,56.1,29.32,ENE,68,0.0,0.0,63,0.00,,---,0.00,VWS V14.01,2013-05-21 11:55:00,
2013-05-21 07:00:00,69.4,56.3,29.32,ENE,68,0.0,0.0,63,0.00,,---,0.00,VWS V14.01,2013-05-21 12:00:00,
2013-05-21 07:05:00,69.6,56.5,29.32,ENE,68,0.0,0.0,63,0.00,,---,0.00,VWS V14.01,2013-05-21 12:05:00,
2013-05-21 07:10:00,69.8,56.2,29.35,ENE,68,0.0,0.0,62,0.00,,---,0.00,VWS V14.01,2013-05-21 12:10:00,
2013-05-21 07:14:00,70.2,56.5,29.35,ENE,68,0.0,0.0,62,0.00,,---,0.00,VWS V14.01,2013-05-21 12:14:00,
2013-05-21 07:19:00,70.3,56.3,29.35,ENE,68,0.0,0.0,61,0.00,,---,0.00,VWS V14.01,2013-05-21 12:19:00,
2013-05-21 07:24:00,70.7,56.6,29.32,ENE,68,0.0,0.0,61,0.00,,---,0.00,VWS V14.01,2013-05-21 12:24:00,
2013-05-21 07:29:00,71.1,56.5,29.32,ENE,68,0.0,0.0,60,0.00,,---,0.00,VWS V14.01,2013-05-21 12:29:00,
2013-05-21 07:34:00,71.4,56.4,29.32,ENE,68,0.0,0.0,59,0.00,,---,0.00,VWS V14.01,2013-05-21 12:34:00,
2013-05-21 07:39:00,71.8,56.2,29.32,ENE,68,0.0,0.0,58,0.00,,---,0.00,VWS V14.01,2013-05-21 12:39:00,
2013-05-21 07:44:00,72.0,55.4,29.32,ENE,68,0.0,0.0,56,0.00,,---,0.00,VWS V14.01,2013-05-21 12:44:00,
2013-05-21 07:49:00,72.1,55.6,29.32,ENE,68,0.0,0.0,56,0.00,,---,0.00,VWS V14.01,2013-05-21 12:49:00,
2013-05-21 07:54:00,72.3,55.3,29.32,ENE,68,0.0,0.0,55,0.00,,---,0.00,VWS V14.01,2013-05-21 12:54:00,
2013-05-21 07:59:00,72.5,54.9,29.32,ENE,68,0.0,0.0,54,0.00,,---,0.00,VWS V14.01,2013-05-21 12:59:00,
2013-05-21 08:04:00,72.7,54.6,29.32,ENE,68,0.0,0.0,53,0.00,,---,0.00,VWS V14.01,2013-05-21 13:04:00,
2013-05-21 08:09:00,72.9,54.8,29.32,ENE,68,0.0,0.0,53,0.00,,---,0.00,VWS V14.01,2013-05-21 13:09:00,
2013-05-21 08:14:00,73.2,55.1,29.32,ENE,68,0.0,0.0,53,0.00,,---,0.00,VWS V14.01,2013-05-21 13:14:00,
2013-05-21 08:19:00,73.9,55.8,29.32,ENE,68,0.0,0.0,53,0.00,,---,0.00,VWS V14.01,2013-05-21 13:19:00,
2013-05-21 08:24:00,74.8,56.6,29.29,ENE,68,0.0,0.0,53,0.00,,---,0.00,VWS V14.01,2013-05-21 13:24:00,
2013-05-21 08:29:00,76.3,55.7,29.29,ENE,68,0.0,0.0,49,0.00,,---,0.00,VWS V14.01,2013-05-21 13:29:00,
2013-05-21 08:34:00,77.2,54.8,29.29,ENE,68,0.0,0.0,46,0.00,,---,0.00,VWS V14.01,2013-05-21 13:34:00,
2013-05-21 08:39:00,77.5,53.9,29.29,ENE,68,0.0,0.0,44,0.00,,---,0.00,VWS V14.01,2013-05-21 13:39:00,
2013-05-21 08:44:00,77.7,52.2,29.29,ENE,68,1.6,2.5,41,0.00,,---,0.00,VWS V14.01,2013-05-21 13:44:00,
2013-05-21 08:49:00,77.7,51.5,29.29,ENE,68,2.2,3.4,40,0.00,,---,0.00,VWS V14.01,2013-05-21 13:49:00,
2013-05-21 08:54:00,77.9,51.7,29.32,ENE,68,0.0,2.9,40,0.00,,---,0.00,VWS V14.01,2013-05-21 13:54:00,
2013-05-21 08:59:00,78.3,52.7,29.32,ENE,68,0.0,0.0,41,0.00,,---,0.00,VWS V14.01,2013-05-21 13:59:00,
2013-05-21 09:04:00,78.6,53.0,29.32,ENE,68,0.0,0.0,41,0.00,,---,0.00,VWS V14.01,2013-05-21 14:04:00,
2013-05-21 09:09:00,79.0,53.3,29.32,ENE,68,0.0,0.0,41,0.00,,---,0.00,VWS V14.01,2013-05-21 14:09:00,
2013-05-21 09:14:00,79.2,52.8,29.32,ENE,68,0.0,0.0,40,0.00,,---,0.00,VWS V14.01,2013-05-21 14:14:00,
2013-05-21 09:19:00,79.5,53.1,29.32,ENE,68,0.0,2.2,40,0.00,,---,0.00,VWS V14.01,2013-05-21 14:19:00,
2013-05-21 09:24:00,79.9,52.7,29.32,ENE,68,0.0,1.1,39,0.00,,---,0.00,VWS V14.01,2013-05-21 14:24:00,
2013-05-21 09:29:00,79.9,52.0,29.32,ENE,68,0.0,0.0,38,0.00,,---,0.00,VWS V14.01,2013-05-21 14:29:00,
2013-05-21 09:34:00,80.2,53.1,29.32,ENE,68,0.9,1.3,39,0.00,,---,0.00,VWS V14.01,2013-05-21 14:34:00,
2013-05-21 09:39:00,80.4,51.8,29.32,ENE,68,0.0,0.9,37,0.00,,---,0.00,VWS V14.01,2013-05-21 14:39:00,
2013-05-21 09:44:00,80.6,51.2,29.32,ENE,68,2.0,2.0,36,0.00,,---,0.00,VWS V14.01,2013-05-21 14:44:00,
2013-05-21 09:49:00,80.4,51.0,29.32,ENE,68,2.5,2.5,36,0.00,,---,0.00,VWS V14.01,2013-05-21 14:49:00,
2013-05-21 09:54:00,81.5,51.2,29.32,ENE,68,0.0,0.0,35,0.00,,---,0.00,VWS V14.01,2013-05-21 14:54:00,
2013-05-21 09:59:00,82.6,51.4,29.32,ENE,68,0.0,0.9,34,0.00,,---,0.00,VWS V14.01,2013-05-21 14:59:00,
2013-05-21 10:04:00,84.0,51.8,29.32,ENE,68,0.0,0.0,33,0.00,,---,0.00,VWS V14.01,2013-05-21 15:04:00,
2013-05-21 10:09:00,85.8,51.7,29.32,ENE,68,0.0,0.0,31,0.00,,---,0.00,VWS V14.01,2013-05-21 15:09:00,
2013-05-21 10:14:00,87.6,52.4,29.32,ENE,68,0.0,0.0,30,0.00,,---,0.00,VWS V14.01,2013-05-21 15:14:00,
2013-05-21 10:19:00,88.3,49.1,29.32,ENE,68,0.0,0.0,26,0.00,,---,0.00,VWS V14.01,2013-05-21 15:19:00,
2013-05-21 10:24:00,89.6,50.2,29.32,ENE,68,0.0,0.0,26,0.00,,---,0.00,VWS V14.01,2013-05-21 15:24:00,
2013-05-21 10:29:00,91.2,50.5,29.32,ENE,68,1.3,1.3,25,0.00,,---,0.00,VWS V14.01,2013-05-21 15:29:00,
2013-05-21 10:34:00,90.7,46.7,29.32,ENE,68,1.6,1.6,22,0.00,,---,0.00,VWS V14.01,2013-05-21 15:34:00,
2013-05-21 10:39:00,91.0,43.1,29.32,ENE,68,3.1,3.8,19,0.00,,---,0.00,VWS V14.01,2013-05-21 15:39:00,
2013-05-21 10:44:00,90.3,42.5,29.32,ENE,68,4.3,6.0,19,0.00,,---,0.00,VWS V14.01,2013-05-21 15:44:00,
2013-05-21 10:49:00,90.9,44.3,29.32,ENE,68,1.1,2.0,20,0.00,,---,0.00,VWS V14.01,2013-05-21 15:49:00,
2013-05-21 10:54:00,90.0,43.5,29.32,ENE,68,3.4,3.4,20,0.00,,---,0.00,VWS V14.01,2013-05-21 15:54:00,
2013-05-21 10:59:00,88.9,42.7,29.32,ENE,68,1.6,1.6,20,0.00,,---,0.00,VWS V14.01,2013-05-21 15:59:00,
2013-05-21 11:04:00,89.1,42.8,29.32,ENE,68,1.6,1.6,20,0.00,,---,0.00,VWS V14.01,2013-05-21 16:04:00,
2013-05-21 11:09:00,90.1,43.7,29.32,ENE,68,6.0,6.0,20,0.00,,---,0.00,VWS V14.01,2013-05-21 16:09:00,
2013-05-21 11:14:00,89.8,43.4,29.32,ENE,68,2.5,2.5,20,0.00,,---,0.00,VWS V14.01,2013-05-21 16:14:00,
2013-05-21 11:19:00,87.1,41.2,29.32,ENE,68,3.1,3.1,20,0.00,,---,0.00,VWS V14.01,2013-05-21 16:19:00,
2013-05-21 11:24:00,88.9,42.7,29.29,ENE,68,2.0,2.5,20,0.00,,---,0.00,VWS V14.01,2013-05-21 16:24:00,
2013-05-21 11:29:00,90.3,43.8,29.29,ENE,68,2.7,2.7,20,0.00,,---,0.00,VWS V14.01,2013-05-21 16:29:00,
2013-05-21 11:34:00,89.2,43.0,29.29,ENE,68,2.5,3.8,20,0.00,,---,0.00,VWS V14.01,2013-05-21 16:34:00,
2013-05-21 11:39:00,88.3,42.2,29.32,ENE,68,0.0,0.9,20,0.00,,---,0.00,VWS V14.01,2013-05-21 16:39:00,
2013-05-21 11:44:00,89.4,43.1,29.32,ENE,68,2.5,2.5,20,0.00,,---,0.00,VWS V14.01,2013-05-21 16:44:00,
2013-05-21 11:49:00,89.2,41.6,29.32,ENE,68,2.5,3.1,19,0.00,,---,0.00,VWS V14.01,2013-05-21 16:49:00,
2013-05-21 11:54:00,90.0,42.2,29.32,ENE,68,5.4,5.6,19,0.00,,---,0.00,VWS V14.01,2013-05-21 16:54:00,
2013-05-21 11:59:00,88.2,40.8,29.32,ENE,68,1.6,1.6,19,0.00,,---,0.00,VWS V14.01,2013-05-21 16:59:00,
2013-05-21 12:04:00,89.8,42.1,29.32,ENE,68,6.5,6.5,19,0.00,,---,0.00,VWS V14.01,2013-05-21 17:04:00,
2013-05-21 12:09:00,90.1,42.4,29.32,ENE,68,1.6,5.6,19,0.00,,---,0.00,VWS V14.01,2013-05-21 17:09:00,
2013-05-21 12:14:00,90.3,42.5,29.32,ENE,68,2.0,3.4,19,0.00,,---,0.00,VWS V14.01,2013-05-21 17:14:00,
2013-05-21 12:19:00,92.1,42.6,29.32,ENE,68,1.6,1.6,18,0.00,,---,0.00,VWS V14.01,2013-05-21 17:19:00,
2013-05-21 12:24:00,91.8,42.3,29.32,ENE,68,3.1,4.0,18,0.00,,---,0.00,VWS V14.01,2013-05-21 17:24:00,
2013-05-21 12:29:00,91.2,41.8,29.32,ENE,68,4.3,4.3,18,0.00,,---,0.00,VWS V14.01,2013-05-21 17:29:00,
2013-05-21 12:34:00,90.1,42.4,29.32,ENE,68,1.6,1.6,19,0.00,,---,0.00,VWS V14.01,2013-05-21 17:34:00,
2013-05-21 12:39:00,89.4,41.8,29.29,ENE,68,2.0,4.7,19,0.00,,---,0.00,VWS V14.01,2013-05-21 17:39:00,
2013-05-21 12:44:00,88.7,41.2,29.29,ENE,68,2.7,2.7,19,0.00,,---,0.00,VWS V14.01,2013-05-21 17:44:00,
2013-05-21 12:49:00,89.8,42.1,29.29,ENE,68,4.7,5.6,19,0.00,,---,0.00,VWS V14.01,2013-05-21 17:49:00,
2013-05-21 12:54:00,89.8,42.1,29.32,ENE,68,3.4,3.8,19,0.00,,---,0.00,VWS V14.01,2013-05-21 17:54:00,
2013-05-21 12:59:00,89.2,41.6,29.32,ENE,68,3.6,4.0,19,0.00,,---,0.00,VWS V14.01,2013-05-21 17:59:00,
2013-05-21 13:04:00,89.4,41.8,29.32,ENE,68,1.6,4.9,19,0.00,,---,0.00,VWS V14.01,2013-05-21 18:04:00,
2013-05-21 13:09:00,90.9,43.0,29.35,ENE,68,4.7,4.7,19,0.00,,---,0.00,VWS V14.01,2013-05-21 18:09:00,
2013-05-21 13:14:00,89.6,40.5,29.35,ENE,68,2.0,4.3,18,0.00,,---,0.00,VWS V14.01,2013-05-21 18:14:00,
2013-05-21 13:19:00,89.2,41.6,29.35,ENE,68,3.1,5.4,19,0.00,,---,0.00,VWS V14.01,2013-05-21 18:19:00,
2013-05-21 13:24:00,90.0,42.2,29.32,ENE,68,3.1,3.1,19,0.00,,---,0.00,VWS V14.01,2013-05-21 18:24:00,
2013-05-21 13:29:00,90.3,41.1,29.32,ENE,68,3.8,3.8,18,0.00,,---,0.00,VWS V14.01,2013-05-21 18:29:00,
2013-05-21 13:33:00,89.2,41.6,29.32,ENE,68,1.3,1.3,19,0.00,,---,0.00,VWS V14.01,2013-05-21 18:33:00,
2013-05-21 13:38:00,89.4,41.8,29.32,ENE,68,1.6,2.2,19,0.00,,---,0.00,VWS V14.01,2013-05-21 18:38:00,
2013-05-21 13:43:00,87.8,40.5,29.32,ENE,68,0.0,2.5,19,0.00,,---,0.00,VWS V14.01,2013-05-21 18:43:00,
2013-05-21 13:48:00,88.2,40.8,29.32,ENE,68,1.1,3.4,19,0.00,,---,0.00,VWS V14.01,2013-05-21 18:48:00,
2013-05-21 13:53:00,88.5,41.0,29.29,ENE,68,3.4,3.4,19,0.00,,---,0.00,VWS V14.01,2013-05-21 18:53:00,
2013-05-21 13:58:00,89.1,41.5,29.29,ENE,68,2.2,2.2,19,0.00,,---,0.00,VWS V14.01,2013-05-21 18:58:00,
2013-05-21 14:03:00,88.7,41.2,29.29,ENE,68,4.7,4.7,19,0.00,,---,0.00,VWS V14.01,2013-05-21 19:03:00,
2013-05-21 14:08:00,90.0,42.2,29.29,ENE,68,2.0,2.7,19,0.00,,---,0.00,VWS V14.01,2013-05-21 19:08:00,
2013-05-21 14:13:00,88.5,41.0,29.29,ENE,68,0.9,0.9,19,0.00,,---,0.00,VWS V14.01,2013-05-21 19:13:00,
2013-05-21 14:18:00,87.6,40.3,29.29,ENE,68,2.0,2.0,19,0.00,,---,0.00,VWS V14.01,2013-05-21 19:18:00,
2013-05-21 14:23:00,90.1,42.4,29.29,ENE,68,1.1,2.5,19,0.00,,---,0.00,VWS V14.01,2013-05-21 19:23:00,
2013-05-21 14:28:00,88.9,41.3,29.29,ENE,68,3.1,4.7,19,0.00,,---,0.00,VWS V14.01,2013-05-21 19:28:00,
2013-05-21 14:33:00,88.7,41.2,29.29,ENE,68,4.9,4.9,19,0.00,,---,0.00,VWS V14.01,2013-05-21 19:33:00,
2013-05-21 14:38:00,90.0,40.8,29.26,ENE,68,1.3,3.4,18,0.00,,---,0.00,VWS V14.01,2013-05-21 19:38:00,
2013-05-21 14:43:00,89.8,40.7,29.26,ENE,68,3.8,3.8,18,0.00,,---,0.00,VWS V14.01,2013-05-21 19:43:00,
2013-05-21 14:48:00,89.8,40.7,29.26,ENE,68,3.4,3.4,18,0.00,,---,0.00,VWS V14.01,2013-05-21 19:48:00,
2013-05-21 14:53:00,91.0,41.7,29.26,ENE,68,2.0,2.0,18,0.00,,---,0.00,VWS V14.01,2013-05-21 19:53:00,
2013-05-21 14:58:00,91.6,42.1,29.26,ENE,68,4.0,4.0,18,0.00,,---,0.00,VWS V14.01,2013-05-21 19:58:00,
2013-05-21 15:03:00,91.6,40.7,29.26,ENE,68,2.2,2.2,17,0.00,,---,0.00,VWS V14.01,2013-05-21 20:03:00,
2013-05-21 15:08:00,92.3,41.2,29.26,ENE,68,2.5,5.6,17,0.00,,---,0.00,VWS V14.01,2013-05-21 20:08:00,
2013-05-21 15:13:00,91.2,41.8,29.26,ENE,68,2.2,2.2,18,0.00,,---,0.00,VWS V14.01,2013-05-21 20:13:00,
2013-05-21 15:18:00,89.4,40.4,29.26,ENE,68,2.0,2.7,18,0.00,,---,0.00,VWS V14.01,2013-05-21 20:18:00,
2013-05-21 15:23:00,89.6,40.5,29.26,ENE,68,2.2,2.5,18,0.00,,---,0.00,VWS V14.01,2013-05-21 20:23:00,
2013-05-21 15:28:00,92.1,42.6,29.26,ENE,68,0.0,2.0,18,0.00,,---,0.00,VWS V14.01,2013-05-21 20:28:00,
2013-05-21 15:33:00,93.4,42.1,29.26,ENE,68,2.0,2.9,17,0.00,,---,0.00,VWS V14.01,2013-05-21 20:33:00,
2013-05-21 15:38:00,92.7,41.5,29.23,ENE,68,1.6,2.5,17,0.00,,---,0.00,VWS V14.01,2013-05-21 20:38:00,
2013-05-21 15:43:00,92.3,41.2,29.23,ENE,68,3.4,4.0,17,0.00,,---,0.00,VWS V14.01,2013-05-21 20:43:00,
2013-05-21 15:48:00,91.9,40.9,29.23,ENE,68,3.6,3.6,17,0.00,,---,0.00,VWS V14.01,2013-05-21 20:48:00,
2013-05-21 15:53:00,91.2,41.8,29.23,ENE,68,3.6,4.3,18,0.00,,---,0.00,VWS V14.01,2013-05-21 20:53:00,
2013-05-21 15:58:00,91.0,41.7,29.23,ENE,68,2.2,3.4,18,0.00,,---,0.00,VWS V14.01,2013-05-21 20:58:00,
2013-05-21 16:03:00,91.8,42.3,29.23,ENE,68,2.5,2.5,18,0.00,,---,0.00,VWS V14.01,2013-05-21 21:03:00,
2013-05-21 16:08:00,91.9,40.9,29.23,ENE,68,3.1,3.1,17,0.00,,---,0.00,VWS V14.01,2013-05-21 21:08:00,
2013-05-21 16:13:00,91.0,41.7,29.23,ENE,68,2.9,2.9,18,0.00,,---,0.00,VWS V14.01,2013-05-21 21:13:00,
2013-05-21 16:18:00,91.2,41.8,29.23,ENE,68,1.1,1.3,18,0.00,,---,0.00,VWS V14.01,2013-05-21 21:18:00,
2013-05-21 16:23:00,90.9,41.5,29.23,ENE,68,2.5,4.3,18,0.00,,---,0.00,VWS V14.01,2013-05-21 21:23:00,
2013-05-21 16:28:00,90.1,41.0,29.23,ENE,68,2.2,2.2,18,0.00,,---,0.00,VWS V14.01,2013-05-21 21:28:00,
2013-05-21 16:33:00,89.6,40.5,29.23,ENE,68,2.0,2.0,18,0.00,,---,0.00,VWS V14.01,2013-05-21 21:33:00,
2013-05-21 16:38:00,89.4,40.4,29.23,ENE,68,3.4,4.0,18,0.00,,---,0.00,VWS V14.01,2013-05-21 21:38:00,
2013-05-21 16:43:00,89.8,40.7,29.23,ENE,68,2.7,4.0,18,0.00,,---,0.00,VWS V14.01,2013-05-21 21:43:00,
2013-05-21 16:48:00,89.8,40.7,29.23,ENE,68,2.9,4.0,18,0.00,,---,0.00,VWS V14.01,2013-05-21 21:48:00,
2013-05-21 16:53:00,89.1,40.1,29.20,ENE,68,1.6,1.6,18,0.00,,---,0.00,VWS V14.01,2013-05-21 21:53:00,
2013-05-21 16:58:00,88.7,39.8,29.20,ENE,68,1.6,1.6,18,0.00,,---,0.00,VWS V14.01,2013-05-21 21:58:00,
2013-05-21 17:03:00,87.6,40.3,29.20,ENE,68,1.6,2.2,19,0.00,,---,0.00,VWS V14.01,2013-05-21 22:03:00,
2013-05-21 17:08:00,87.1,39.9,29.20,ENE,68,1.1,3.1,19,0.00,,---,0.00,VWS V14.01,2013-05-21 22:08:00,
2013-05-21 17:13:00,87.1,39.9,29.20,ENE,68,0.9,3.4,19,0.00,,---,0.00,VWS V14.01,2013-05-21 22:13:00,
2013-05-21 17:18:00,87.4,40.2,29.20,ENE,68,3.1,3.1,19,0.00,,---,0.00,VWS V14.01,2013-05-21 22:18:00,
2013-05-21 17:23:00,87.1,39.9,29.20,ENE,68,3.1,3.6,19,0.00,,---,0.00,VWS V14.01,2013-05-21 22:23:00,
2013-05-21 17:28:00,87.1,39.9,29.20,ENE,68,2.2,3.4,19,0.00,,---,0.00,VWS V14.01,2013-05-21 22:28:00,
2013-05-21 17:33:00,87.3,40.0,29.20,ENE,68,1.3,2.5,19,0.00,,---,0.00,VWS V14.01,2013-05-21 22:33:00,
2013-05-21 17:38:00,87.6,40.3,29.20,ENE,68,1.6,2.7,19,0.00,,---,0.00,VWS V14.01,2013-05-21 22:38:00,
2013-05-21 17:43:00,88.0,40.6,29.20,ENE,68,0.9,2.0,19,0.00,,---,0.00,VWS V14.01,2013-05-21 22:43:00,
2013-05-21 17:48:00,88.2,40.8,29.20,ENE,68,2.5,2.5,19,0.00,,---,0.00,VWS V14.01,2013-05-21 22:48:00,
2013-05-21 17:53:00,87.3,40.0,29.20,ENE,68,0.9,1.6,19,0.00,,---,0.00,VWS V14.01,2013-05-21 22:53:00,
2013-05-21 17:58:00,87.3,40.0,29.20,ENE,68,0.0,1.3,19,0.00,,---,0.00,VWS V14.01,2013-05-21 22:58:00,
2013-05-21 18:03:00,87.1,39.9,29.20,ENE,68,2.5,2.5,19,0.00,,---,0.00,VWS V14.01,2013-05-21 23:03:00,
2013-05-21 18:08:00,86.9,39.7,29.20,ENE,68,1.3,1.6,19,0.00,,---,0.00,VWS V14.01,2013-05-21 23:08:00,
2013-05-21 18:13:00,87.1,39.9,29.20,ENE,68,0.9,1.1,19,0.00,,---,0.00,VWS V14.01,2013-05-21 23:13:00,
2013-05-21 18:18:00,86.7,39.6,29.20,ENE,68,1.6,1.6,19,0.00,,---,0.00,VWS V14.01,2013-05-21 23:18:00,
2013-05-21 18:23:00,86.2,39.1,29.17,ENE,68,0.0,0.0,19,0.00,,---,0.00,VWS V14.01,2013-05-21 23:23:00,
2013-05-21 18:28:00,86.2,39.1,29.17,ENE,68,2.0,2.2,19,0.00,,---,0.00,VWS V14.01,2013-05-21 23:28:00,
2013-05-21 18:33:00,85.8,38.8,29.17,ENE,68,0.0,0.0,19,0.00,,---,0.00,VWS V14.01,2013-05-21 23:33:00,
2013-05-21 18:38:00,85.1,38.2,29.17,ENE,68,2.0,2.7,19,0.00,,---,0.00,VWS V14.01,2013-05-21 23:38:00,
2013-05-21 18:43:00,84.6,37.8,29.17,ENE,68,2.5,2.5,19,0.00,,---,0.00,VWS V14.01,2013-05-21 23:43:00,
2013-05-21 18:48:00,84.2,37.5,29.17,ENE,68,2.2,2.9,19,0.00,,---,0.00,VWS V14.01,2013-05-21 23:48:00,
2013-05-21 18:53:00,84.0,37.4,29.20,ENE,68,0.0,0.0,19,0.00,,---,0.00,VWS V14.01,2013-05-21 23:53:00,
2013-05-21 18:58:00,83.7,38.4,29.20,ENE,68,0.0,0.0,20,0.00,,---,0.00,VWS V14.01,2013-05-21 23:58:00,
2013-05-21 19:03:00,83.5,38.2,29.20,ENE,68,0.0,0.0,20,0.00,,---,0.00,VWS V14.01,2013-05-22 00:03:00,
2013-05-21 19:08:00,82.8,37.6,29.23,ENE,68,0.0,0.0,20,0.00,,---,0.00,VWS V14.01,2013-05-22 00:08:00,
2013-05-21 19:13:00,82.4,37.3,29.23,ENE,68,1.3,1.3,20,0.00,,---,0.00,VWS V14.01,2013-05-22 00:13:00,
2013-05-21 19:18:00,81.9,36.9,29.23,ENE,68,0.0,0.0,20,0.00,,---,0.00,VWS V14.01,2013-05-22 00:18:00,
2013-05-21 19:23:00,81.5,37.8,29.20,ENE,68,0.0,0.0,21,0.00,,---,0.00,VWS V14.01,2013-05-22 00:23:00,
2013-05-21 19:28:00,80.8,37.2,29.20,ENE,68,0.0,0.0,21,0.00,,---,0.00,VWS V14.01,2013-05-22 00:28:00,
2013-05-21 19:33:00,80.4,37.0,29.20,ENE,68,0.0,0.0,21,0.00,,---,0.00,VWS V14.01,2013-05-22 00:33:00,
2013-05-21 19:38:00,79.9,37.7,29.20,ENE,68,0.0,0.0,22,0.00,,---,0.00,VWS V14.01,2013-05-22 00:38:00,
2013-05-21 19:43:00,79.5,37.4,29.20,ENE,68,0.0,0.0,22,0.00,,---,0.00,VWS V14.01,2013-05-22 00:43:00,
2013-05-21 19:48:00,78.6,37.8,29.20,ENE,68,0.0,0.0,23,0.00,,---,0.00,VWS V14.01,2013-05-22 00:48:00,
2013-05-21 19:53:00,78.1,38.4,29.20,ENE,68,0.0,0.0,24,0.00,,---,0.00,VWS V14.01,2013-05-22 00:53:00,
2013-05-21 19:58:00,77.9,38.2,29.20,ENE,68,0.0,0.0,24,0.00,,---,0.00,VWS V14.01,2013-05-22 00:58:00,
2013-05-21 20:03:00,77.5,37.9,29.20,ENE,68,0.0,0.0,24,0.00,,---,0.00,VWS V14.01,2013-05-22 01:03:00,
2013-05-21 20:08:00,77.2,38.7,29.20,ENE,68,0.0,0.0,25,0.00,,---,0.00,VWS V14.01,2013-05-22 01:08:00,
2013-05-21 20:13:00,77.0,38.5,29.20,ENE,68,0.0,0.0,25,0.00,,---,0.00,VWS V14.01,2013-05-22 01:13:00,
2013-05-21 20:18:00,76.5,40.0,29.20,ENE,68,0.0,0.0,27,0.00,,---,0.00,VWS V14.01,2013-05-22 01:18:00,
2013-05-21 20:23:00,76.5,41.0,29.20,ENE,68,0.0,0.0,28,0.00,,---,0.00,VWS V14.01,2013-05-22 01:23:00,
2013-05-21 20:28:00,76.5,41.0,29.20,ENE,68,0.0,0.0,28,0.00,,---,0.00,VWS V14.01,2013-05-22 01:28:00,
2013-05-21 20:33:00,75.9,41.4,29.20,ENE,68,0.0,0.0,29,0.00,,---,0.00,VWS V14.01,2013-05-22 01:33:00,
2013-05-21 20:38:00,75.9,41.4,29.23,ENE,68,0.0,0.0,29,0.00,,---,0.00,VWS V14.01,2013-05-22 01:38:00,
2013-05-21 20:43:00,75.4,42.7,29.23,ENE,68,0.0,0.0,31,0.00,,---,0.00,VWS V14.01,2013-05-22 01:43:00,
2013-05-21 20:48:00,75.2,42.5,29.23,ENE,68,0.0,0.0,31,0.00,,---,0.00,VWS V14.01,2013-05-22 01:48:00,
2013-05-21 20:53:00,75.4,42.7,29.23,ENE,68,0.0,0.0,31,0.00,,---,0.00,VWS V14.01,2013-05-22 01:53:00,
2013-05-21 20:58:00,75.7,43.0,29.23,ENE,68,0.0,0.0,31,0.00,,---,0.00,VWS V14.01,2013-05-22 01:58:00,
2013-05-21 21:02:00,75.9,43.1,29.23,ENE,68,0.0,0.0,31,0.00,,---,0.00,VWS V14.01,2013-05-22 02:02:00,
2013-05-21 21:07:00,75.9,43.1,29.23,ENE,68,0.0,0.0,31,0.00,,---,0.00,VWS V14.01,2013-05-22 02:07:00,
2013-05-21 21:12:00,76.1,43.3,29.23,ENE,68,0.0,0.0,31,0.00,,---,0.00,VWS V14.01,2013-05-22 02:12:00,
2013-05-21 21:17:00,76.1,44.1,29.23,ENE,68,0.0,0.0,32,0.00,,---,0.00,VWS V14.01,2013-05-22 02:17:00,
2013-05-21 21:22:00,76.1,44.1,29.26,ENE,68,0.0,0.0,32,0.00,,---,0.00,VWS V14.01,2013-05-22 02:22:00,
2013-05-21 21:27:00,76.1,44.1,29.26,ENE,68,0.0,0.0,32,0.00,,---,0.00,VWS V14.01,2013-05-22 02:27:00,
2013-05-21 21:32:00,75.9,44.0,29.26,ENE,68,0.0,0.0,32,0.00,,---,0.00,VWS V14.01,2013-05-22 02:32:00,
2013-05-21 21:37:00,75.9,44.0,29.26,ENE,68,0.0,0.0,32,0.00,,---,0.00,VWS V14.01,2013-05-22 02:37:00,
2013-05-21 21:42:00,75.9,44.0,29.26,ENE,68,0.0,0.0,32,0.00,,---,0.00,VWS V14.01,2013-05-22 02:42:00,
2013-05-21 21:47:00,75.9,44.0,29.26,ENE,68,0.0,0.0,32,0.00,,---,0.00,VWS V14.01,2013-05-22 02:47:00,
2013-05-21 21:52:00,75.9,44.0,29.26,ENE,68,0.0,0.0,32,0.00,,---,0.00,VWS V14.01,2013-05-22 02:52:00,
2013-05-21 21:57:00,75.9,44.0,29.26,ENE,68,1.3,1.6,32,0.00,,---,0.00,VWS V14.01,2013-05-22 02:57:00,
2013-05-21 22:02:00,75.6,44.5,29.26,ENE,68,0.0,0.0,33,0.00,,---,0.00,VWS V14.01,2013-05-22 03:02:00,
2013-05-21 22:07:00,75.4,44.3,29.26,ENE,68,0.0,0.0,33,0.00,,---,0.00,VWS V14.01,2013-05-22 03:07:00,
2013-05-21 22:12:00,75.2,44.2,29.26,ENE,68,0.0,0.0,33,0.00,,---,0.00,VWS V14.01,2013-05-22 03:12:00,
2013-05-21 22:17:00,75.0,44.8,29.26,ENE,68,0.0,0.0,34,0.00,,---,0.00,VWS V14.01,2013-05-22 03:17:00,
2013-05-21 22:22:00,74.7,44.5,29.26,ENE,68,0.0,0.0,34,0.00,,---,0.00,VWS V14.01,2013-05-22 03:22:00,
2013-05-21 22:27:00,74.7,44.5,29.26,ENE,68,0.0,0.0,34,0.00,,---,0.00,VWS V14.01,2013-05-22 03:27:00,
2013-05-21 22:32:00,74.5,45.1,29.26,ENE,68,0.0,0.0,35,0.00,,---,0.00,VWS V14.01,2013-05-22 03:32:00,
2013-05-21 22:37:00,74.5,45.1,29.26,ENE,68,0.0,0.0,35,0.00,,---,0.00,VWS V14.01,2013-05-22 03:37:00,
2013-05-21 22:42:00,73.9,45.3,29.26,ENE,68,0.0,0.0,36,0.00,,---,0.00,VWS V14.01,2013-05-22 03:42:00,
2013-05-21 22:47:00,73.9,45.3,29.26,ENE,68,0.0,0.0,36,0.00,,---,0.00,VWS V14.01,2013-05-22 03:47:00,
2013-05-21 22:52:00,73.6,45.0,29.26,ENE,68,0.0,0.0,36,0.00,,---,0.00,VWS V14.01,2013-05-22 03:52:00,
2013-05-21 22:57:00,73.6,45.0,29.26,ENE,68,0.0,0.0,36,0.00,,---,0.00,VWS V14.01,2013-05-22 03:57:00,
2013-05-21 23:01:00,73.6,45.0,29.26,ENE,68,0.0,0.0,36,0.00,,---,0.00,VWS V14.01,2013-05-22 04:01:00,
2013-05-21 23:06:00,73.6,45.7,29.26,ENE,68,0.0,0.0,37,0.00,,---,0.00,VWS V14.01,2013-05-22 04:06:00,
2013-05-21 23:11:00,73.0,46.0,29.26,ENE,68,0.0,0.0,38,0.00,,---,0.00,VWS V14.01,2013-05-22 04:11:00,
2013-05-21 23:16:00,72.9,46.5,29.26,ENE,68,0.0,0.0,39,0.00,,---,0.00,VWS V14.01,2013-05-22 04:16:00,
2013-05-21 23:21:00,72.9,46.5,29.26,ENE,68,0.0,0.0,39,0.00,,---,0.00,VWS V14.01,2013-05-22 04:21:00,
2013-05-21 23:26:00,72.7,46.3,29.26,ENE,68,0.0,0.0,39,0.00,,---,0.00,VWS V14.01,2013-05-22 04:26:00,
2013-05-21 23:31:00,72.7,46.3,29.26,ENE,68,0.0,0.0,39,0.00,,---,0.00,VWS V14.01,2013-05-22 04:31:00,
2013-05-21 23:36:00,72.7,46.3,29.26,ENE,68,0.0,0.0,39,0.00,,---,0.00,VWS V14.01,2013-05-22 04:36:00,
2013-05-21 23:41:00,72.7,46.3,29.26,ENE,68,0.0,0.0,39,0.00,,---,0.00,VWS V14.01,2013-05-22 04:41:00,
2013-05-21 23:46:00,72.5,46.2,29.26,ENE,68,0.0,0.0,39,0.00,,---,0.00,VWS V14.01,2013-05-22 04:46:00,
2013-05-21 23:51:00,72.5,46.8,29.23,ENE,68,0.0,0.0,40,0.00,,---,0.00,VWS V14.01,2013-05-22 04:51:00,
2013-05-21 23:56:00,72.3,46.7,29.23,ENE,68,0.0,0.0,40,0.00,,---,0.00,VWS V14.01,2013-05-22 04:56:00,